Location: Newark
(24.4667°N, 39.6000°E)
Time: 15:33:01
(UTC+00:00)

ISS - Visible Passes

Search period start: 15 November 2019 00:00
Search period end: 25 November 2019 00:00
Orbit: 412 x 421 km, 51.6° (Epoch: 15 November)

Date Brightness Start Highest point End Pass type
(mag) Time Alt. Az. Time Alt. Az. Time Alt. Az.
15 Nov -1.4 01:43:51 20° NE 01:43:51 20° NE 01:46:08 10° E visible
16 Nov -3.3 02:31:03 34° W 02:31:57 43° SW 02:35:09 10° SSE visible
16 Nov -1.6 15:52:29 10° S 15:53:40 15° SSE 15:53:40 15° SSE visible
17 Nov -1.7 01:45:22 26° SE 01:45:22 26° SE 01:46:59 10° SE visible
17 Nov -1.0 16:39:50 10° WSW 16:40:55 18° WSW 16:40:55 18° WSW visible
18 Nov -3.9 15:51:20 10° SW 15:54:40 82° SE 15:55:08 63° NE visible
19 Nov -2.9 15:03:16 10° SSW 15:06:20 35° SE 15:09:16 11° ENE visible
19 Nov -0.6 16:41:30 10° WNW 16:42:12 12° WNW 16:42:12 12° WNW visible
20 Nov -1.7 15:51:51 10° W 15:54:37 23° NW 15:56:14 17° N visible
21 Nov -2.9 15:02:55 10° WSW 15:06:09 48° NW 15:09:23 10° NNE visible
23 Nov -1.1 15:04:17 10° WNW 15:06:09 14° NW 15:08:00 10° N visible
